Weather History for Elmira, NY

Change the Weather History Date:

Wednesday, July 17, 2013

  Actual Average Record
Temperature  
Mean Temperature 78 °F -  
Max Temperature 95 °F 84 °F 97 °F (2012)
Min Temperature 62 °F 58 °F 43 °F (1966)
Cooling Degree Days 12    
Growing Degree Days 28 (Base 50)    
Moisture  
Dew Point 67 °F    
Average Humidity 80    
Maximum Humidity 100    
Minimum Humidity 42    
Precipitation  
Precipitation 0.00 in - - ()
Sea Level Pressure  
Sea Level Pressure 30.20 in    
Wind  
Wind Speed 3 mph (WSW)    
Max Wind Speed 8 mph    
Max Gust Speed -    
Visibility 6 miles    
Events      
Averages and records for this station are not official NWS values.
T = Trace of Precipitation, MM = Missing Value Source: NWS Daily Summary

Daily Weather History Graph

Daily Weather History Graph

Search for Another Location

Airport:

Trip Planner

Search our weather history database for the weather conditions in past years. The results will help you decide how hot, cold, wet, or windy it might be!

Date:

Astronomy

Jul. 17, 2013 Rise Set
Actual Time 5:46 AM EDT 8:40 PM EDT
Civil Twilight 5:13 AM EDT 9:13 PM EDT
Nautical Twilight 4:31 AM EDT 9:55 PM EDT
Astronomical Twilight 3:42 AM EDT 10:44 PM EDT
Moon 3:25 PM EDT (7/17) 12:54 AM EDT (7/17)
Length of Visible Light 16h 00m
Length of Day
14h 53m
Waxing Gibbous, 67% of the Moon is Illuminated
Jul 17
Waxing Gibbous
Jul 22
Full
Jul 29
Last Quarter
Aug 6
New
Aug 14
First Quarter

Hourly Weather History & Observations

Time (EDT) Temp. Heat Index Dew Point Humidity Pressure Visibility Wind Dir Wind Speed Gust Speed Precip Events Conditions
12:53 AM 66.9 °F - 64.0 °F 90% 30.23 in 5.0 mi WNW 4.6 mph - N/A   Clear
1:53 AM 66.9 °F - 64.9 °F 93% 30.23 in 5.0 mi Calm Calm - N/A   Clear
2:53 AM 69.1 °F - 66.0 °F 90% 30.22 in 6.0 mi SW 5.8 mph - N/A   Clear
3:40 AM 64.4 °F - 62.6 °F 94% 30.24 in 1.8 mi Calm Calm - N/A   Clear
3:53 AM 64.0 °F - 63.0 °F 96% 30.23 in 2.5 mi WSW 3.5 mph - N/A   Clear
4:09 AM 64.4 °F - 64.4 °F 100% 30.25 in 1.8 mi Calm Calm - N/A   Clear
4:11 AM 66.2 °F - 64.4 °F 94% 30.25 in 3.0 mi Calm Calm - N/A   Clear
4:29 AM 64.4 °F - 62.6 °F 94% 30.25 in 2.0 mi Calm Calm - N/A   Clear
4:37 AM 62.6 °F - 60.8 °F 94% 30.25 in 1.8 mi WSW 3.5 mph - N/A   Clear
4:43 AM 64.4 °F - 62.6 °F 94% 30.25 in 3.0 mi Calm Calm - N/A   Clear
4:53 AM 64.9 °F - 63.0 °F 93% 30.24 in 4.0 mi Calm Calm - N/A   Clear
5:01 AM 62.6 °F - 62.6 °F 100% 30.26 in 2.0 mi Calm Calm - N/A   Partly Cloudy
5:08 AM 62.6 °F - 62.6 °F 100% 30.26 in 1.5 mi WSW 3.5 mph - N/A   Scattered Clouds
5:12 AM 62.6 °F - 62.6 °F 100% 30.26 in 2.5 mi WSW 3.5 mph - N/A   Mostly Cloudy
5:20 AM 64.4 °F - 62.6 °F 94% 30.26 in 4.0 mi WSW 3.5 mph - N/A   Mostly Cloudy
5:53 AM 66.0 °F - 64.0 °F 93% 30.25 in 1.0 mi Calm Calm - N/A   Overcast
6:53 AM 68.0 °F - 64.9 °F 90% 30.26 in 1.0 mi WSW 3.5 mph - N/A   Mostly Cloudy
7:50 AM 69.8 °F - 66.2 °F 88% 30.28 in 3.0 mi Calm Calm - N/A   Mostly Cloudy
7:53 AM 70.0 °F - 66.9 °F 90% 30.26 in 3.0 mi Calm Calm - N/A   Scattered Clouds
8:53 AM 73.9 °F - 68.0 °F 82% 30.25 in 8.0 mi SW 3.5 mph - N/A   Clear
9:53 AM 80.1 °F 82.9 °F 69.1 °F 69% 30.24 in 10.0 mi SSW 4.6 mph - N/A   Clear
10:53 AM 84.0 °F 89.0 °F 71.1 °F 65% 30.22 in 10.0 mi SSW 6.9 mph - N/A   Clear
11:53 AM 87.1 °F 93.6 °F 72.0 °F 61% 30.21 in 10.0 mi SW 6.9 mph - N/A   Partly Cloudy
12:53 PM 88.0 °F 93.8 °F 71.1 °F 57% 30.19 in 10.0 mi Variable 3.5 mph - N/A   Mostly Cloudy
1:53 PM 91.0 °F 96.6 °F 70.0 °F 50% 30.17 in 10.0 mi West 6.9 mph - N/A   Scattered Clouds
2:53 PM 93.0 °F 97.9 °F 69.1 °F 45% 30.13 in 10.0 mi West 8.1 mph - N/A   Clear
3:53 PM 93.0 °F 96.4 °F 66.9 °F 42% 30.13 in 10.0 mi West 4.6 mph - N/A   Partly Cloudy
4:53 PM 93.9 °F 98.6 °F 68.0 °F 43% 30.10 in 10.0 mi West 5.8 mph - N/A   Clear
5:53 PM 93.0 °F 97.9 °F 69.1 °F 45% 30.07 in 10.0 mi WSW 5.8 mph - N/A   Clear
6:53 PM 89.1 °F 97.0 °F 73.0 °F 59% 30.08 in 10.0 mi WNW 4.6 mph - N/A   Scattered Clouds
7:53 PM 86.0 °F 95.1 °F 75.0 °F 70% 30.07 in 10.0 mi Calm Calm - N/A   Clear
8:53 PM 81.0 °F 86.2 °F 73.9 °F 79% 30.09 in 9.0 mi WNW 4.6 mph - N/A   Clear
9:53 PM 80.1 °F 84.2 °F 73.0 °F 79% 30.11 in 10.0 mi SW 3.5 mph - N/A   Clear
10:53 PM 80.1 °F 83.8 °F 72.0 °F 76% 30.10 in 10.0 mi WSW 5.8 mph - N/A   Clear
11:53 PM 78.1 °F - 71.1 °F 79% 30.10 in 10.0 mi SW 4.6 mph - N/A   Clear